Weather History for KHST - April, 2013

Change the Weather History Date:

Tuesday, April 9, 2013

  Actual Average (KMIA) Record (KMIA)
Temperature  
Mean Temperature 76 °F 75 °F  
Max Temperature 80 °F 82 °F 93 °F (1982)
Min Temperature 71 °F 67 °F 42 °F (1939)
Degree Days  
Heating Degree Days 0 0  
Month to date heating degree days 0  
Since 1 July heating degree days 127  
Cooling Degree Days 10 10  
Month to date cooling degree days 86  
Year to date cooling degree days 655  
Growing Degree Days 26 (Base 50)    
Moisture  
Dew Point 67 °F    
Average Humidity 73    
Maximum Humidity 82    
Minimum Humidity 66    
Precipitation  
Precipitation 0.00 in 0.10 in 4.67 in (1990)
Month to date precipitation 0.93  
Year to date precipitation 7.80  
Snow  
Snow 0.00 in - - ()
Month to date snowfall  
Since 1 July snowfall  
Snow Depth -    
Sea Level Pressure  
Sea Level Pressure 30.11 in    
Wind  
Wind Speed 9 mph (East)    
Max Wind Speed 17 mph    
Max Gust Speed 22 mph    
Visibility 10 miles    
Events      
T = Trace of Precipitation, MM = Missing Value Source: NWS Daily Summary

Daily Weather History Graph

Daily Weather History Graph

Search for Another Location

Airport or City:

Trip Planner

Search our weather history database for the weather conditions in past years. The results will help you decide how hot, cold, wet, or windy it might be!

Date:

Astronomy

Apr. 09, 2013 Rise Set
Actual Time 7:04 AM EDT 7:41 PM EDT
Civil Twilight 6:41 AM EDT 8:05 PM EDT
Nautical Twilight 6:13 AM EDT 8:32 PM EDT
Astronomical Twilight 5:46 AM EDT 9:00 PM EDT
Moon 6:23 AM EDT (4/9) 7:15 PM EDT (4/9)
Length of Visible Light 13h 23m
Length of Day
12h 37m
Waning Crescent, 1% of the Moon is Illuminated
Apr 9
Waning Crescent
Apr 10
New
Apr 18
First Quarter
Apr 25
Full
May 2
Last Quarter

Hourly Weather History & Observations

Time (EDT) Temp. Heat Index Dew Point Humidity Pressure Visibility Wind Dir Wind Speed Gust Speed Precip Events Conditions
12:58 AM 72.1 °F - 62.2 °F 71% 30.12 in 10.0 mi East 5.8 mph - N/A   Clear
1:58 AM 72.1 °F - 64.0 °F 76% 30.11 in 10.0 mi East 5.8 mph - N/A   Clear
2:58 AM 72.5 °F - 65.1 °F 78% 30.08 in 10.0 mi East 5.8 mph - N/A   Clear
3:58 AM 72.1 °F - 64.9 °F 78% 30.07 in 10.0 mi East 5.8 mph - N/A   Clear
4:58 AM 71.8 °F - 64.8 °F 78% 30.07 in 10.0 mi ESE 4.6 mph - N/A   Clear
5:58 AM 71.6 °F - 65.1 °F 80% 30.09 in 10.0 mi East 5.8 mph - N/A   Clear
6:58 AM 71.6 °F - 65.8 °F 82% 30.10 in 10.0 mi East 5.8 mph - N/A   Clear
7:58 AM 73.0 °F - 66.2 °F 79% 30.12 in 10.0 mi ESE 4.6 mph - N/A   Clear
8:58 AM 76.3 °F - 67.1 °F 73% 30.12 in 10.0 mi ESE 10.4 mph - N/A   Clear
9:58 AM 77.9 °F - 67.6 °F 71% 30.14 in 10.0 mi ESE 12.7 mph - N/A   Clear
10:58 AM 79.3 °F - 67.8 °F 68% 30.15 in 10.0 mi East 12.7 mph - N/A   Partly Cloudy
11:46 AM 78.8 °F - 68.0 °F 69% 30.15 in 10.0 mi East 13.8 mph - N/A   Light Drizzle
11:55 AM 78.8 °F - 68.0 °F 69% 30.15 in 10.0 mi East 15.0 mph 21.9 mph N/A   Clear
11:58 AM 79.5 °F - 68.0 °F 68% 30.16 in 10.0 mi East 12.7 mph 21.9 mph 0.00 in   Clear
12:10 PM 80.6 °F 83.9 °F 69.8 °F 70% 30.14 in 10.0 mi ENE 16.1 mph - N/A   Partly Cloudy
12:58 PM 79.9 °F - 69.1 °F 69% 30.15 in 10.0 mi East 17.3 mph - N/A   Partly Cloudy
1:58 PM 79.2 °F - 68.7 °F 70% 30.13 in 10.0 mi East 15.0 mph - N/A   Partly Cloudy
2:58 PM 79.7 °F - 68.0 °F 67% 30.11 in 10.0 mi East 11.5 mph - N/A   Clear
3:58 PM 79.7 °F - 68.4 °F 68% 30.10 in 10.0 mi East 12.7 mph 19.6 mph N/A   Partly Cloudy
4:58 PM 79.2 °F - 67.1 °F 66% 30.09 in 10.0 mi East 13.8 mph - N/A   Clear
5:58 PM 77.2 °F - 68.2 °F 74% 30.10 in 10.0 mi East 10.4 mph - N/A   Scattered Clouds
6:58 PM 76.5 °F - 67.8 °F 75% 30.09 in 10.0 mi ENE 13.8 mph - N/A   Clear
7:56 PM 75.2 °F - 66.2 °F 73% 30.09 in 10.0 mi ENE 11.5 mph - N/A   Light Drizzle
7:58 PM 74.8 °F - 66.9 °F 76% 30.10 in 10.0 mi ENE 11.5 mph - N/A   Light Drizzle
8:05 PM 75.2 °F - 66.2 °F 73% 30.09 in 10.0 mi ENE 11.5 mph - N/A   Clear
8:29 PM 75.2 °F - 66.2 °F 73% 30.09 in 10.0 mi ENE 11.5 mph - N/A   Light Drizzle
8:38 PM 75.2 °F - 66.2 °F 73% 30.09 in 10.0 mi ENE 11.5 mph - N/A   Clear
8:58 PM 74.8 °F - 66.6 °F 75% 30.11 in 10.0 mi East 12.7 mph - 0.00 in   Clear
9:58 PM 74.8 °F - 65.5 °F 73% 30.11 in 10.0 mi ENE 12.7 mph - N/A   Partly Cloudy
10:58 PM 74.5 °F - 66.4 °F 76% 30.12 in 10.0 mi ENE 10.4 mph - N/A   Clear
11:58 PM 74.7 °F - 65.5 °F 73% 30.10 in 10.0 mi East 10.4 mph - N/A   Clear